Total_Precipitation_Accumulation
0.06 0.07 0.09 0.12 0.20 0.23 0.23 0.21 0.18 0.16 0.16 0.17 0.18 0.20 0.24 0.27 0.29 0.31 0.32 0.34 0.37 0.37 0.34 0.30 0.28 0.28 0.29 0.31 0.36 0.39 0.40 0.41 0.41 0.44 0.51 0.63 0.63 0.61 0.60 0.59 0.60 0.62 0.64 0.67 0.69 0.72 0.74 0.76 0.77 0.94 1.09 1.08 1.09 1.10 1.11 1.10 1.07 1.05 1.03 1.03 1.01 0.98 0.96 0.98 0.93 0.85 0.78 0.77 0.78
0.08 0.08 0.11 0.19 0.23 0.26 0.28 0.27 0.27 0.28 0.31 0.33 0.33 0.31 0.30 0.31 0.36 0.38 0.39 0.40 0.41 0.41 0.39 0.34 0.33 0.33 0.34 0.35 0.35 0.35 0.34 0.32 0.33 0.36 0.41 0.50 0.54 0.58 0.61 0.64 0.68 0.73 0.77 0.78 0.80 0.81 0.83 0.87 1.07 1.18 1.21 1.19 1.21 1.26 1.26 1.15 1.20 1.21 1.19 1.16 1.14 1.10 1.05 1.00 0.89 0.79 0.72 0.69 0.64
0.07 0.09 0.14 0.23 0.25 0.28 0.30 0.31 0.31 0.32 0.34 0.33 0.31 0.30 0.29 0.31 0.36 0.40 0.42 0.42 0.41 0.40 0.39 0.40 0.39 0.39 0.38 0.36 0.34 0.32 0.30 0.30 0.30 0.31 0.32 0.34 0.36 0.40 0.45 0.50 0.58 0.69 0.80 0.86 0.92 0.97 1.02 1.06 1.15 1.20 1.21 1.19 1.25 1.30 1.28 1.14 1.24 1.32 1.34 1.26 1.08 1.04 1.04 0.97 0.87 0.81 0.78 0.77 0.72
0.06 0.06 0.09 0.15 0.18 0.19 0.20 0.22 0.24 0.26 0.27 0.26 0.26 0.27 0.28 0.29 0.32 0.34 0.33 0.30 0.27 0.25 0.25 0.27 0.26 0.27 0.28 0.29 0.24 0.24 0.27 0.28 0.30 0.33 0.35 0.38 0.42 0.43 0.44 0.47 0.54 0.63 0.73 0.87 0.93 0.99 1.05 1.10 1.14 1.16 1.15 1.09 1.07 1.06 1.04 0.96 1.01 1.09 1.11 0.95 0.95 0.99 0.99 0.90 0.86 0.84 0.84 0.85 0.97
0.05 0.04 0.05 0.08 0.10 0.11 0.10 0.11 0.11 0.13 0.16 0.18 0.21 0.23 0.24 0.25 0.26 0.24 0.21 0.17 0.15 0.13 0.13 0.14 0.15 0.16 0.16 0.13 0.14 0.15 0.17 0.19 0.23 0.27 0.31 0.38 0.47 0.52 0.56 0.63 0.72 0.78 0.85 0.97 1.05 1.08 1.13 1.26 1.25 1.21 1.15 1.07 1.00 0.93 0.87 0.81 0.95 1.00 0.99 1.00 0.99 0.97 0.95 0.99 0.96 0.96 1.00 1.06 1.49
0.06 0.03 0.03 0.04 0.04 0.05 0.06 0.08 0.10 0.13 0.14 0.15 0.18 0.20 0.19 0.16 0.13 0.12 0.11 0.10 0.10 0.10 0.10 0.10 0.10 0.12 0.15 0.17 0.20 0.20 0.20 0.23 0.26 0.30 0.35 0.40 0.49 0.55 0.60 0.66 0.74 0.85 0.96 1.07 1.17 1.22 1.27 1.33 1.40 1.44 1.39 1.21 1.10 1.00 0.92 0.86 0.95 0.99 1.04 1.12 1.01 0.98 1.00 1.07 1.26 1.41 1.54 1.69 1.74
0.07 0.04 0.02 0.02 0.04 0.05 0.05 0.07 0.07 0.08 0.09 0.08 0.08 0.07 0.06 0.05 0.05 0.06 0.07 0.08 0.10 0.12 0.14 0.13 0.21 0.24 0.25 0.26 0.26 0.27 0.28 0.30 0.34 0.39 0.43 0.47 0.51 0.59 0.67 0.71 0.78 0.84 0.91 1.00 1.16 1.23 1.28 1.38 1.47 1.49 1.48 1.45 1.37 1.28 1.20 1.14 1.12 1.23 1.32 1.20 1.14 1.13 1.17 1.27 1.44 1.63 1.75 1.73 1.31
0.11 0.07 0.04 0.03 0.03 0.04 0.04 0.05 0.05 0.05 0.06 0.06 0.07 0.06 0.05 0.04 0.04 0.05 0.06 0.08 0.11 0.14 0.16 0.20 0.26 0.29 0.28 0.27 0.26 0.26 0.26 0.28 0.31 0.34 0.38 0.42 0.46 0.55 0.64 0.69 0.73 0.78 0.83 0.84 1.00 1.10 1.18 1.25 1.29 1.31 1.32 1.33 1.43 1.43 1.39 1.32 1.31 1.42 1.52 1.47 1.42 1.42 1.44 1.44 1.40 1.38 1.33 1.22 1.01
0.14 0.12 0.08 0.02 0.03 0.03 0.03 0.04 0.04 0.05 0.07 0.08 0.10 0.10 0.09 0.07 0.04 0.04 0.05 0.07 0.10 0.13 0.16 0.21 0.26 0.30 0.32 0.31 0.30 0.27 0.24 0.21 0.23 0.26 0.29 0.32 0.38 0.43 0.47 0.50 0.57 0.65 0.71 0.77 0.78 0.87 0.97 1.01 1.04 1.06 1.07 1.07 1.14 1.20 1.27 1.36 1.37 1.44 1.52 1.55 1.41 1.35 1.34 1.31 1.27 1.21 1.13 1.01 0.96
0.11 0.10 0.08 0.04 0.03 0.02 0.02 0.03 0.03 0.04 0.06 0.08 0.11 0.10 0.08 0.07 0.05 0.04 0.05 0.06 0.10 0.13 0.16 0.20 0.27 0.30 0.32 0.32 0.29 0.26 0.23 0.21 0.23 0.25 0.27 0.28 0.30 0.32 0.34 0.39 0.46 0.52 0.57 0.63 0.62 0.64 0.69 0.71 0.76 0.80 0.82 0.83 0.89 0.95 1.03 1.14 1.00 0.99 1.05 1.10 1.11 1.10 1.09 1.06 1.10 1.09 1.05 0.98 0.97
0.08 0.07 0.05 0.04 0.03 0.02 0.02 0.02 0.02 0.02 0.02 0.03 0.06 0.06 0.06 0.06 0.05 0.05 0.07 0.09 0.12 0.14 0.13 0.12 0.18 0.20 0.21 0.22 0.21 0.19 0.18 0.19 0.21 0.22 0.22 0.23 0.23 0.26 0.30 0.36 0.43 0.49 0.49 0.39 0.37 0.40 0.44 0.45 0.49 0.53 0.56 0.61 0.67 0.70 0.75 0.85 0.71 0.70 0.75 0.78 0.78 0.76 0.75 0.73 0.76 0.83 0.86 0.78 0.83
0.06 0.06 0.05 0.03 0.03 0.03 0.03 0.02 0.02 0.03 0.03 0.05 0.07 0.08 0.07 0.07 0.06 0.07 0.09 0.13 0.14 0.12 0.09 0.06 0.07 0.08 0.11 0.13 0.15 0.17 0.17 0.17 0.16 0.17 0.19 0.22 0.24 0.28 0.33 0.38 0.45 0.44 0.37 0.24 0.23 0.27 0.30 0.29 0.31 0.33 0.37 0.42 0.47 0.51 0.54 0.56 0.51 0.51 0.54 0.56 0.55 0.55 0.55 0.55 0.58 0.65 0.72 0.74 0.78
0.04 0.04 0.04 0.03 0.03 0.03 0.03 0.03 0.04 0.05 0.06 0.07 0.09 0.10 0.10 0.10 0.10 0.11 0.12 0.12 0.11 0.10 0.08 0.07 0.07 0.09 0.11 0.11 0.14 0.17 0.19 0.20 0.18 0.20 0.24 0.28 0.33 0.37 0.40 0.43 0.37 0.28 0.20 0.19 0.19 0.21 0.23 0.23 0.23 0.25 0.26 0.27 0.31 0.35 0.38 0.36 0.36 0.37 0.40 0.45 0.49 0.52 0.55 0.57 0.59 0.69 0.79 0.81 0.80
0.02 0.03 0.03 0.03 0.03 0.04 0.04 0.04 0.05 0.06 0.08 0.09 0.10 0.11 0.12 0.13 0.13 0.14 0.14 0.12 0.10 0.09 0.09 0.09 0.09 0.11 0.14 0.13 0.14 0.17 0.21 0.25 0.24 0.29 0.36 0.39 0.41 0.40 0.36 0.31 0.25 0.22 0.20 0.19 0.21 0.21 0.21 0.21 0.21 0.23 0.25 0.26 0.28 0.31 0.33 0.31 0.32 0.34 0.38 0.43 0.50 0.58 0.65 0.70 0.73 0.81 0.87 0.83 0.80
0.02 0.02 0.02 0.03 0.03 0.04 0.05 0.06 0.07 0.08 0.08 0.10 0.10 0.11 0.12 0.13 0.15 0.18 0.20 0.18 0.14 0.13 0.13 0.12 0.12 0.13 0.14 0.14 0.16 0.20 0.26 0.33 0.38 0.42 0.42 0.37 0.32 0.27 0.23 0.20 0.18 0.19 0.21 0.20 0.20 0.21 0.21 0.22 0.23 0.25 0.25 0.24 0.25 0.27 0.29 0.29 0.33 0.39 0.46 0.53 0.58 0.65 0.73 0.79 0.83 0.78 0.70 0.64 0.63
0.01 0.01 0.01 0.02 0.03 0.04 0.06 0.07 0.08 0.08 0.09 0.10 0.10 0.11 0.12 0.13 0.15 0.21 0.26 0.27 0.25 0.24 0.22 0.18 0.16 0.15 0.15 0.18 0.23 0.29 0.34 0.40 0.42 0.37 0.29 0.22 0.20 0.20 0.19 0.17 0.17 0.20 0.22 0.22 0.20 0.20 0.20 0.21 0.22 0.22 0.21 0.20 0.22 0.26 0.32 0.37 0.43 0.49 0.55 0.60 0.62 0.64 0.66 0.68 0.65 0.58 0.52 0.51 0.50
0.01 0.01 0.01 0.02 0.04 0.05 0.06 0.08 0.09 0.10 0.10 0.11 0.11 0.12 0.13 0.14 0.15 0.19 0.25 0.30 0.34 0.35 0.33 0.29 0.24 0.21 0.22 0.28 0.36 0.37 0.35 0.30 0.27 0.23 0.20 0.16 0.16 0.18 0.19 0.19 0.20 0.22 0.24 0.24 0.22 0.20 0.18 0.18 0.18 0.18 0.19 0.20 0.24 0.34 0.43 0.48 0.53 0.55 0.55 0.54 0.53 0.50 0.47 0.47 0.41 0.40 0.43 0.46 0.47
0.02 0.02 0.02 0.03 0.04 0.06 0.08 0.09 0.11 0.12 0.12 0.13 0.13 0.13 0.13 0.14 0.15 0.17 0.21 0.26 0.31 0.37 0.40 0.40 0.36 0.33 0.33 0.36 0.36 0.32 0.26 0.21 0.18 0.16 0.15 0.14 0.15 0.17 0.20 0.20 0.22 0.23 0.24 0.25 0.24 0.22 0.20 0.18 0.18 0.20 0.23 0.26 0.33 0.39 0.44 0.46 0.49 0.51 0.50 0.48 0.44 0.40 0.37 0.37 0.40 0.42 0.44 0.47 0.47
0.02 0.03 0.03 0.03 0.04 0.05 0.07 0.09 0.12 0.14 0.16 0.17 0.16 0.16 0.16 0.17 0.16 0.17 0.20 0.23 0.28 0.34 0.41 0.48 0.48 0.45 0.41 0.34 0.30 0.26 0.23 0.20 0.18 0.17 0.16 0.17 0.17 0.18 0.19 0.19 0.21 0.22 0.24 0.26 0.26 0.25 0.24 0.22 0.25 0.29 0.34 0.36 0.36 0.37 0.38 0.43 0.48 0.51 0.52 0.50 0.46 0.44 0.44 0.46 0.47 0.47 0.46 0.47 0.48
0.03 0.04 0.04 0.04 0.04 0.05 0.06 0.08 0.11 0.16 0.20 0.21 0.22 0.23 0.23 0.21 0.20 0.21 0.22 0.24 0.29 0.36 0.44 0.52 0.52 0.49 0.41 0.29 0.28 0.27 0.26 0.24 0.23 0.23 0.23 0.21 0.22 0.21 0.21 0.23 0.25 0.26 0.27 0.29 0.30 0.30 0.30 0.29 0.30 0.33 0.35 0.35 0.40 0.43 0.47 0.54 0.57 0.58 0.58 0.57 0.56 0.54 0.52 0.46 0.44 0.42 0.41 0.40 0.41
0.03 0.04 0.05 0.05 0.06 0.07 0.08 0.09 0.12 0.18 0.24 0.26 0.28 0.30 0.30 0.29 0.28 0.27 0.27 0.29 0.36 0.42 0.48 0.52 0.49 0.45 0.39 0.30 0.30 0.30 0.31 0.33 0.33 0.30 0.28 0.29 0.29 0.27 0.27 0.31 0.30 0.30 0.32 0.35 0.35 0.34 0.33 0.34 0.35 0.36 0.39 0.44 0.50 0.54 0.55 0.56 0.55 0.54 0.53 0.52 0.50 0.48 0.46 0.42 0.40 0.39 0.37 0.35 0.35
0.04 0.05 0.06 0.07 0.09 0.11 0.13 0.15 0.18 0.24 0.31 0.33 0.34 0.35 0.37 0.38 0.35 0.31 0.31 0.38 0.44 0.48 0.50 0.53 0.50 0.47 0.42 0.36 0.33 0.34 0.37 0.38 0.36 0.37 0.39 0.40 0.39 0.34 0.29 0.30 0.32 0.34 0.38 0.42 0.41 0.41 0.43 0.45 0.43 0.43 0.47 0.54 0.58 0.59 0.57 0.55 0.53 0.51 0.50 0.48 0.46 0.44 0.43 0.42 0.40 0.38 0.36 0.34 0.32
0.09 0.10 0.12 0.14 0.16 0.17 0.19 0.21 0.27 0.33 0.37 0.38 0.40 0.42 0.45 0.47 0.45 0.41 0.41 0.48 0.50 0.52 0.55 0.59 0.57 0.53 0.47 0.42 0.38 0.37 0.39 0.42 0.45 0.47 0.47 0.45 0.43 0.38 0.34 0.34 0.37 0.41 0.43 0.46 0.49 0.50 0.50 0.49 0.44 0.50 0.60 0.68 0.72 0.70 0.67 0.63 0.60 0.57 0.54 0.48 0.46 0.46 0.46 0.43 0.41 0.39 0.37 0.35 0.34
0.18 0.19 0.21 0.22 0.24 0.25 0.27 0.28 0.34 0.38 0.41 0.42 0.45 0.46 0.49 0.55 0.55 0.55 0.56 0.61 0.62 0.62 0.62 0.63 0.63 0.60 0.57 0.54 0.46 0.42 0.41 0.45 0.47 0.48 0.49 0.49 0.47 0.45 0.43 0.41 0.42 0.42 0.43 0.43 0.45 0.46 0.45 0.46 0.47 0.59 0.73 0.81 0.81 0.78 0.73 0.67 0.63 0.60 0.57 0.53 0.50 0.53 0.56 0.53 0.51 0.50 0.49 0.49 0.48
0.20 0.23 0.25 0.27 0.29 0.31 0.33 0.37 0.41 0.41 0.41 0.40 0.44 0.46 0.49 0.55 0.60 0.63 0.67 0.74 0.74 0.74 0.72 0.68 0.71 0.74 0.75 0.73 0.62 0.53 0.47 0.49 0.51 0.53 0.56 0.57 0.54 0.53 0.52 0.49 0.46 0.44 0.43 0.42 0.40 0.39 0.39 0.43 0.54 0.69 0.84 0.92 0.91 0.88 0.84 0.74 0.73 0.70 0.67 0.66 0.64 0.64 0.63 0.59 0.57 0.56 0.56 0.56 0.55
0.20 0.23 0.25 0.25 0.27 0.30 0.33 0.35 0.38 0.39 0.38 0.38 0.41 0.45 0.48 0.50 0.54 0.60 0.70 0.83 0.89 0.87 0.84 0.87 0.89 0.92 0.92 0.84 0.84 0.74 0.63 0.61 0.61 0.60 0.58 0.57 0.58 0.56 0.53 0.49 0.48 0.49 0.50 0.48 0.49 0.50 0.51 0.51 0.71 0.85 0.92 0.92 0.87 0.84 0.80 0.75 0.73 0.73 0.74 0.73 0.71 0.70 0.68 0.66 0.63 0.60 0.59 0.57 0.56
0.22 0.24 0.26 0.24 0.25 0.26 0.26 0.26 0.32 0.34 0.35 0.36 0.39 0.40 0.42 0.45 0.48 0.54 0.65 0.82 0.94 1.01 1.04 1.04 1.08 1.09 1.12 1.23 1.09 0.95 0.83 0.72 0.71 0.67 0.62 0.60 0.59 0.54 0.48 0.44 0.44 0.45 0.47 0.47 0.48 0.50 0.56 0.67 0.65 0.69 0.75 0.81 0.80 0.78 0.75 0.73 0.71 0.71 0.73 0.74 0.65 0.62 0.62 0.61 0.59 0.58 0.58 0.57 0.55
0.32 0.30 0.27 0.24 0.21 0.19 0.17 0.17 0.25 0.27 0.27 0.28 0.34 0.38 0.42 0.45 0.47 0.51 0.56 0.63 0.91 1.07 1.14 1.16 1.26 1.49 1.65 1.54 1.23 1.01 0.87 0.78 0.75 0.73 0.71 0.68 0.63 0.59 0.56 0.54 0.53 0.51 0.50 0.52 0.47 0.47 0.48 0.45 0.47 0.51 0.57 0.65 0.70 0.67 0.62 0.58 0.55 0.55 0.58 0.62 0.61 0.62 0.64 0.66 0.69 0.74 0.77 0.75 0.72
0.35 0.31 0.26 0.23 0.19 0.15 0.12 0.14 0.18 0.21 0.23 0.24 0.27 0.35 0.44 0.47 0.45 0.42 0.42 0.50 0.85 1.08 1.21 1.26 1.48 1.72 1.80 1.58 1.25 1.08 0.98 0.85 0.85 0.87 0.91 0.94 0.99 1.03 1.02 0.97 0.91 0.85 0.77 0.70 0.63 0.56 0.50 0.46 0.44 0.45 0.49 0.53 0.65 0.72 0.71 0.65 0.60 0.59 0.60 0.62 0.68 0.75 0.81 0.87 0.85 0.85 0.87 0.89 0.83
0.42 0.42 0.37 0.23 0.17 0.13 0.11 0.11 0.12 0.13 0.14 0.19 0.24 0.34 0.44 0.49 0.45 0.39 0.35 0.39 0.70 0.76 0.81 1.05 1.37 1.59 1.62 1.40 1.24 1.13 1.06 0.99 1.00 1.01 1.02 1.03 1.04 1.04 1.01 0.92 0.82 0.72 0.64 0.61 0.59 0.65 0.70 0.65 0.62 0.60 0.60 0.61 0.66 0.74 0.80 0.79 0.77 0.76 0.74 0.69 0.68 0.69 0.72 0.73 0.75 0.75 0.75 0.76 0.77
0.34 0.37 0.38 0.37 0.25 0.18 0.15 0.15 0.15 0.16 0.15 0.14 0.18 0.23 0.30 0.38 0.41 0.39 0.39 0.51 0.59 0.66 0.75 0.92 1.20 1.37 1.44 1.38 1.31 1.22 1.12 1.03 1.03 1.03 1.02 1.01 1.00 0.99 0.97 0.94 0.87 0.83 0.83 0.87 0.87 0.82 0.75 0.68 0.66 0.65 0.65 0.67 0.75 0.81 0.84 0.83 0.83 0.79 0.75 0.70 0.69 0.69 0.69 0.70 0.69 0.69 0.68 0.66 0.66
0.30 0.35 0.39 0.43 0.37 0.29 0.23 0.19 0.21 0.19 0.17 0.15 0.17 0.21 0.29 0.39 0.45 0.49 0.54 0.60 0.81 0.88 0.90 0.90 1.02 1.21 1.39 1.50 1.48 1.39 1.25 1.11 1.06 1.04 1.05 1.09 1.06 0.99 0.92 0.84 0.82 0.82 0.84 0.88 0.87 0.86 0.83 0.76 0.72 0.71 0.72 0.74 0.81 0.85 0.86 0.86 0.84 0.81 0.76 0.69 0.62 0.59 0.59 0.62 0.63 0.62 0.60 0.60 0.55
0.26 0.34 0.40 0.44 0.35 0.30 0.29 0.30 0.27 0.27 0.31 0.36 0.35 0.35 0.36 0.41 0.47 0.57 0.71 0.85 1.03 1.22 1.34 1.32 1.31 1.34 1.43 1.60 1.63 1.55 1.40 1.24 1.12 1.10 1.11 1.10 1.07 0.98 0.86 0.75 0.72 0.72 0.76 0.85 0.85 0.85 0.83 0.81 0.81 0.81 0.81 0.82 0.89 0.91 0.90 0.88 0.87 0.83 0.78 0.74 0.69 0.62 0.57 0.55 0.55 0.55 0.54 0.54 0.55
0.22 0.27 0.31 0.33 0.31 0.32 0.32 0.32 0.35 0.39 0.44 0.50 0.48 0.46 0.47 0.52 0.65 0.79 0.93 1.06 1.27 1.60 1.88 1.97 1.89 1.82 1.79 1.87 1.99 1.89 1.68 1.46 1.28 1.21 1.17 1.07 0.99 0.87 0.74 0.63 0.62 0.65 0.73 0.88 0.83 0.82 0.82 0.82 0.86 0.87 0.86 0.87 0.92 0.92 0.90 0.88 0.87 0.80 0.72 0.68 0.65 0.60 0.56 0.52 0.51 0.51 0.51 0.52 0.57
0.20 0.24 0.24 0.25 0.28 0.33 0.38 0.40 0.39 0.41 0.46 0.54 0.53 0.56 0.65 0.83 1.05 1.25 1.45 1.65 1.82 2.05 2.20 2.16 2.08 1.97 1.92 2.02 2.26 2.25 2.07 1.78 1.54 1.37 1.25 1.17 1.06 0.93 0.78 0.65 0.63 0.67 0.73 0.76 0.70 0.69 0.70 0.71 0.75 0.78 0.82 0.88 0.90 0.86 0.80 0.78 0.79 0.75 0.70 0.67 0.64 0.60 0.56 0.54 0.54 0.54 0.55 0.57 0.59
0.22 0.24 0.24 0.23 0.24 0.29 0.36 0.45 0.47 0.50 0.51 0.50 0.57 0.73 0.95 1.18 1.40 1.58 1.73 1.88 1.92 1.87 1.79 1.75 1.74 1.71 1.68 1.70 1.99 2.12 2.11 1.97 1.71 1.50 1.32 1.18 1.09 0.95 0.81 0.68 0.64 0.64 0.66 0.64 0.61 0.61 0.63 0.65 0.67 0.68 0.74 0.91 0.88 0.85 0.82 0.81 0.83 0.79 0.73 0.70 0.63 0.58 0.55 0.54 0.55 0.56 0.58 0.64 0.66
0.25 0.26 0.25 0.24 0.26 0.30 0.37 0.49 0.51 0.52 0.53 0.57 0.74 0.91 1.08 1.24 1.39 1.44 1.45 1.46 1.53 1.52 1.50 1.55 1.63 1.59 1.51 1.51 1.63 1.81 1.91 1.84 1.54 1.25 1.01 0.83 0.79 0.72 0.63 0.51 0.56 0.60 0.62 0.60 0.59 0.59 0.60 0.62 0.62 0.63 0.69 0.85 0.88 0.88 0.87 0.91 0.92 0.85 0.77 0.73 0.70 0.67 0.65 0.63 0.64 0.63 0.63 0.67 0.66
0.25 0.28 0.29 0.27 0.33 0.39 0.44 0.47 0.44 0.44 0.47 0.54 0.69 0.79 0.89 1.05 1.17 1.18 1.16 1.18 1.38 1.49 1.57 1.67 1.68 1.57 1.44 1.36 1.39 1.56 1.71 1.71 1.49 1.22 0.96 0.80 0.72 0.71 0.70 0.60 0.64 0.63 0.60 0.58 0.59 0.61 0.63 0.63 0.63 0.67 0.77 0.99 0.89 0.87 0.94 1.10 1.06 1.00 0.95 0.91 0.89 0.85 0.80 0.76 0.74 0.72 0.71 0.71 0.69
0.24 0.28 0.32 0.38 0.40 0.39 0.35 0.29 0.29 0.32 0.36 0.41 0.50 0.57 0.66 0.80 0.89 0.96 1.03 1.14 1.32 1.47 1.58 1.63 1.53 1.39 1.27 1.24 1.29 1.47 1.66 1.75 1.64 1.40 1.12 0.92 0.77 0.69 0.69 0.76 0.70 0.65 0.61 0.61 0.64 0.67 0.69 0.69 0.71 0.76 0.87 1.08 1.04 1.02 1.07 1.22 1.20 1.13 1.05 1.00 0.99 0.93 0.85 0.78 0.78 0.76 0.74 0.75 0.69
0.30 0.36 0.41 0.41 0.34 0.27 0.22 0.22 0.24 0.27 0.31 0.36 0.40 0.48 0.59 0.72 0.84 0.96 1.08 1.19 1.33 1.44 1.51 1.50 1.36 1.24 1.17 1.19 1.22 1.32 1.47 1.63 1.61 1.44 1.20 0.95 0.76 0.66 0.67 0.78 0.77 0.73 0.68 0.67 0.71 0.74 0.75 0.76 0.77 0.84 0.97 1.16 1.18 1.18 1.18 1.18 1.17 1.09 1.01 0.94 0.94 0.93 0.89 0.81 0.79 0.75 0.71 0.69 0.64
0.38 0.40 0.38 0.28 0.21 0.18 0.20 0.27 0.31 0.35 0.40 0.48 0.56 0.65 0.77 0.91 1.07 1.19 1.27 1.32 1.36 1.33 1.27 1.21 1.26 1.27 1.27 1.27 1.21 1.24 1.35 1.56 1.53 1.40 1.18 0.88 0.72 0.68 0.72 0.83 0.86 0.85 0.82 0.80 0.83 0.84 0.83 0.83 0.84 0.92 1.06 1.24 1.21 1.21 1.22 1.21 1.15 1.06 0.96 0.87 0.81 0.81 0.81 0.79 0.75 0.71 0.68 0.64 0.63